[[{"header":{"parameterUnit":"m.s-1","parameterCategory":1,"la1":30.2991,"la2":30.254,"lo1":-89.0895,"lo2":-89.0444,"dy":0.0017,"dx":0.0017,"nx":28,"ny":28,"refTime":"2025-02-10T03:00:00:Z","depth":0,"parameterNumber":2,"parameterNumberName":"U-component_of_WINDS"},"data":[0,0,0,0,0,0,0,0,0,0,0,0,0,0,0,0,0,0,0,0,0,0,0,0,0,0,0,0,0,0,0,0,0,0,0,0,0,0,0,0,0,0,0,0,0,0,0,0,0,0,0,0,0,0,0,0,0,0,-2.3313,-2.3314,0,-2.3364,-2.3364,-2.3365,-2.3308,-2.3306,-2.3304,-2.3302,-2.3356,-2.3359,-2.3363,0,0,0,0,0,0,0,0,0,0,0,0,0,-2.317,-2.3172,-2.3313,-2.3314,-2.3314,-2.3364,-2.3365,-2.3365,-2.3309,-2.3306,-2.3303,-2.3301,-2.3355,-2.3359,-2.3363,0,0,0,0,0,0,0,0,0,0,0,0,0,-2.3227,-2.3173,-2.3313,-2.3292,-2.3291,-2.3364,-2.3365,-2.3365,-2.3309,-2.3306,-2.3303,-2.33,-2.3353,-2.3358,-2.3364,-2.346,0,0,-2.3379,-2.3382,0,0,0,0,0,0,0,0,-2.3224,-2.3233,-2.3295,-2.3294,-2.3292,-2.3326,-2.3334,-2.3397,-2.331,-2.3302,-2.3302,-2.3298,-2.3349,-2.3354,-2.3371,-2.3463,-2.3465,-2.338,-2.3383,-2.3385,-2.3387,0,0,0,0,0,0,0,-2.322,-2.323,-2.3333,-2.3296,-2.3294,-2.3281,-2.3286,-2.3345,-2.3343,-2.3303,-2.3299,-2.3305,-2.3348,-2.3366,-2.3372,-2.3466,-2.338,-2.3384,-2.3387,-2.3389,-2.3641,-2.3644,0,0,0,0,0,0,-2.3218,-2.3227,-2.3332,-2.3335,-2.325,-2.3286,-2.3291,-2.3319,-2.3342,-2.3343,-2.3308,-2.3303,-2.3359,-2.3366,-2.3373,-2.3489,-2.3385,-2.339,-2.3393,-2.3637,-2.3641,-2.3645,0,0,0,0,0,0,-2.3215,-2.3228,-2.333,-2.328,-2.3292,-2.3292,-2.3323,-2.3322,-2.334,-2.3346,-2.3346,-2.3327,-2.3357,-2.3366,-2.3439,-2.349,-2.3392,-2.3397,-2.3633,-2.3638,-2.3643,-2.3721,0,0,0,0,0,0,-2.3212,-2.3227,-2.3264,-2.3281,-2.3295,-2.3394,-2.3326,-2.3325,-2.3349,-2.3342,-2.3364,-2.3365,-2.3355,-2.3432,-2.3444,-2.3496,-2.3401,-2.3628,-2.3635,-2.3642,-2.3714,-2.3728,-2.374,0,0,0,0,0,-2.3207,-2.3284,-2.3266,-2.3279,-2.334,-2.3397,-2.3405,-2.3391,-2.3353,-2.339,-2.3394,-2.3364,-2.3482,-2.344,-2.3453,-2.3507,-2.3625,-2.3633,-2.3641,-2.3708,-2.3725,-2.374,0,0,0,0,0,0,-2.3272,-2.3285,-2.3266,-2.3351,-2.3373,-2.3387,-2.3433,-2.341,-2.3444,-2.3437,-2.3419,-2.3424,-2.3502,-2.3511,-2.3464,-2.3602,-2.3547,-2.3559,-2.3593,-2.361,-2.3623,-2.362,-2.3405,0,0,0,0,0,-2.3297,-2.3342,-2.3351,-2.3425,-2.3437,-2.3433,-2.3458,-2.3445,-2.3468,-2.3478,-2.3487,-2.3511,-2.3554,-2.3582,-2.3622,-2.3714,-2.3719,-2.3758,-2.3771,-2.3782,-2.3793,-2.3844,-2.3862,-2.3672,-2.3672,-2.3671,0,0,-2.3348,-2.336,-2.339,-2.3438,-2.3454,-2.3502,-2.3442,-2.3495,-2.353,-2.3486,-2.3556,-2.3564,-2.3589,-2.3673,-2.371,-2.3683,-2.3846,-2.3793,-2.3801,-2.3806,-2.3854,-2.3872,-2.3888,-2.3677,-2.3676,-2.3675,0,0,-2.3465,-2.3478,-2.3542,-2.3559,-2.3584,-2.3581,-2.3597,-2.3615,-2.3618,-2.3688,-2.3656,-2.3698,-2.3771,-2.3792,-2.3811,-2.3937,-2.3911,-2.395,-2.4021,-2.4071,-2.4086,-2.4099,-2.4145,-2.4162,-2.396,-2.396,-2.396,0,-2.3525,-2.3595,-2.3578,-2.3634,-2.3656,-2.3618,-2.3683,-2.37,-2.3737,-2.3754,-2.3723,-2.3815,-2.3829,-2.3918,-2.3949,-2.3965,-2.3983,-2.3948,-2.4085,-2.4098,-2.411,-2.4154,-2.4171,-2.3965,-2.3964,-2.3964,-2.3964,0,-2.3669,-2.3718,-2.3767,-2.3803,-2.3831,-2.3891,-2.3884,-2.3914,-2.39,-2.39,-2.3972,-2.3988,-2.4031,-2.4051,-2.4037,-2.4138,-2.412,-2.4087,-2.4032,-2.4133,-2.4174,-2.4191,-2.3972,-2.397,-2.3969,-2.3967,0,0,-2.383,-2.3856,-2.3874,-2.3891,-2.3916,-2.3954,-2.4012,-2.4053,-2.4081,-2.4107,-2.4157,-2.422,-2.419,-2.4213,-2.42,-2.4244,-2.4345,-2.4206,-2.4206,-2.4233,-2.4459,-2.4484,-2.4504,-2.4327,-2.433,-2.4333,-2.4457,0,-2.3949,-2.405,-2.4037,-2.4134,-2.418,-2.4144,-2.4195,-2.4217,-2.4219,-2.4259,-2.4261,-2.4307,-2.4263,-2.4277,-2.4318,-2.4324,-2.439,-2.4314,-2.4374,-2.4377,-2.4371,-2.4525,-2.4552,-2.4669,-2.4473,-2.4475,-2.4477,0,-2.4101,-2.4134,-2.4236,-2.4254,-2.4273,-2.4319,-2.4356,-2.4394,-2.4418,-2.4417,-2.4443,-2.4423,-2.4483,-2.4425,-2.4508,-2.4457,-2.4481,-2.4487,-2.4491,-2.4498,-2.4434,-2.4537,-2.4706,-2.4724,-2.4502,-2.45,-2.4498,0,-2.421,-2.4279,-2.4349,-2.4364,-2.4387,-2.4421,-2.4432,-2.4453,-2.4479,-2.4511,-2.4528,-2.4567,-2.4589,-2.4621,-2.4613,-2.4571,-2.4698,-2.464,-2.47,-2.47,-2.4729,-2.4728,-2.4906,-2.4742,-2.4742,-2.4742,-2.4741,0,-2.4346,-2.441,-2.4399,-2.4442,-2.4514,-2.4498,-2.4569,-2.4576,-2.4594,-2.4639,-2.461,-2.4653,-2.4639,-2.4681,-2.4675,-2.4746,-2.4756,-2.4757,-2.4755,-2.4761,-2.4761,-2.4777,-2.4769,-2.4746,-2.4745,-2.4745,-2.4744,0,-2.448,-2.4475,-2.4549,-2.4565,-2.4571,-2.4623,-2.4636,-2.4678,-2.4677,-2.4735,-2.4747,-2.4748,-2.4796,-2.4791,-2.4845,-2.4841,-2.4929,-2.4917,-2.4921,-2.4919,-2.498,-2.4975,-2.5176,-2.5202,-2.502,-2.5022,-2.5023,0,-2.4567,-2.4616,-2.4637,-2.4664,-2.4678,-2.4723,-2.4749,-2.4735,-2.4764,-2.4795,-2.4833,-2.4879,-2.4915,-2.4995,-2.5,-2.5042,-2.5031,-2.5099,-2.5037,-2.5042,-2.5034,-2.5032,-2.5037,-2.5111,-2.5113,-2.5115,-2.5116,0,-2.4723,-2.4718,-2.4757,-2.4796,-2.4828,-2.4857,-2.4884,-2.4909,-2.4897,-2.4931,-2.498,-2.5008,-2.5064,-2.511,-2.515,-2.5162,-2.5139,-2.5135,-2.5152,-2.5159,-2.516,-2.5161,-2.4956,-2.5131,-2.513,-2.5129,-2.5128,-2.5127,-2.4837,-2.4879,-2.4901,-2.4945,-2.4964,-2.499,-2.503,-2.5035,-2.5075,-2.5119,-2.5108,-2.5164,-2.5188,-2.5238,-2.5255,-2.5299,-2.5274,-2.5298,-2.5304,-2.531,-2.5318,-2.5152,-2.5306,-2.5305,-2.5305,-2.5305,-2.5304,0,-2.4993,-2.5005,-2.5046,-2.5084,-2.512,-2.5093,-2.5121,-2.5153,-2.5202,-2.5226,-2.5262,-2.5319,-2.5364,-2.5373,-2.5416,-2.545,-2.544,-2.5462,-2.546,-2.5464,-2.5337,-2.5319,-2.5469,-2.5469,-2.5469,-2.5469,-2.5469,-2.5469,-2.5078,-2.5148,-2.5146,-2.5226,-2.5237,-2.5291,-2.531,-2.5334,-2.5353,-2.5418,-2.5455,-2.546,-2.5479,-2.5523,-2.5564,-2.5565,-2.5583,-2.561,-2.5607,-2.5489,-2.5472,-2.5457,-2.544,-2.5613,-2.5614,-2.5731,-2.5732,-2.5733]},{"header":{"parameterUnit":"m.s-1","parameterCategory":1,"la1":30.2991,"la2":30.254,"lo1":-89.0895,"lo2":-89.0444,"dy":0.0017,"dx":0.0017,"nx":28,"ny":28,"refTime":"2025-02-10T03:00:00:Z","depth":0,"parameterNumber":3,"parameterNumberName":"V-component_of_WINDS"},"data":[0,0,0,0,0,0,0,0,0,0,0,0,0,0,0,0,0,0,0,0,0,0,0,0,0,0,0,0,0,0,0,0,0,0,0,0,0,0,0,0,0,0,0,0,0,0,0,0,0,0,0,0,0,0,0,0,0,0,-3.9637,-3.9636,0,-3.9564,-3.9563,-3.9562,-3.9475,-3.9474,-3.9473,-3.9471,-3.9395,-3.9394,-3.9393,0,0,0,0,0,0,0,0,0,0,0,0,0,-3.97,-3.9699,-3.9637,-3.9636,-3.9635,-3.9564,-3.9563,-3.9562,-3.9476,-3.9474,-3.9472,-3.9471,-3.9395,-3.9394,-3.9393,0,0,0,0,0,0,0,0,0,0,0,0,0,-3.9654,-3.9699,-3.9637,-3.9584,-3.9578,-3.9564,-3.9563,-3.9562,-3.9476,-3.9474,-3.9472,-3.947,-3.9396,-3.9394,-3.9393,-3.9426,0,0,-3.939,-3.9389,0,0,0,0,0,0,0,0,-3.9657,-3.9652,-3.9592,-3.9587,-3.9581,-3.9527,-3.9557,-3.9516,-3.9476,-3.9515,-3.9471,-3.9469,-3.944,-3.9435,-3.9426,-3.9422,-3.9419,-3.939,-3.9389,-3.9388,-3.9388,0,0,0,0,0,0,0,-3.966,-3.9655,-3.9608,-3.9592,-3.9585,-3.9562,-3.9554,-3.9549,-3.949,-3.9511,-3.9505,-3.9497,-3.9437,-3.9427,-3.9424,-3.9418,-3.939,-3.9388,-3.9388,-3.9387,-3.9435,-3.9437,0,0,0,0,0,0,-3.9672,-3.9658,-3.961,-3.9606,-3.9615,-3.9563,-3.9553,-3.9546,-3.9489,-3.9479,-3.9499,-3.9493,-3.943,-3.9425,-3.9421,-3.9454,-3.9388,-3.9387,-3.9386,-3.9433,-3.9435,-3.9437,0,0,0,0,0,0,-3.9673,-3.9668,-3.9613,-3.963,-3.9621,-3.9564,-3.9557,-3.9546,-3.9536,-3.948,-3.9469,-3.95,-3.9429,-3.9422,-3.9425,-3.945,-3.9387,-3.9386,-3.9431,-3.9434,-3.9436,-3.9521,0,0,0,0,0,0,-3.9676,-3.9669,-3.9682,-3.9631,-3.9621,-3.962,-3.9558,-3.9546,-3.9534,-3.9526,-3.9478,-3.9469,-3.9426,-3.9427,-3.9424,-3.9447,-3.9385,-3.9428,-3.9432,-3.9435,-3.9516,-3.9527,-3.9536,0,0,0,0,0,-3.9678,-3.9709,-3.9683,-3.9678,-3.9635,-3.9622,-3.9616,-3.9567,-3.9537,-3.9548,-3.9512,-3.947,-3.9448,-3.9428,-3.9423,-3.9447,-3.9426,-3.9431,-3.9435,-3.9511,-3.9525,-3.9536,0,0,0,0,0,0,-3.9764,-3.9701,-3.9672,-3.9687,-3.9661,-3.9607,-3.962,-3.9583,-3.9564,-3.9557,-3.9497,-3.9487,-3.9496,-3.9472,-3.9451,-3.9474,-3.9431,-3.9434,-3.949,-3.9502,-3.9512,-3.9518,-3.9384,0,0,0,0,0,-3.9785,-3.978,-3.9725,-3.9743,-3.9731,-3.9679,-3.9671,-3.9635,-3.9605,-3.9593,-3.9557,-3.9529,-3.9515,-3.9507,-3.9492,-3.9512,-3.9499,-3.9525,-3.9535,-3.9544,-3.9548,-3.9555,-3.9565,-3.9452,-3.9452,-3.9452,0,0,-3.9828,-3.9793,-3.9793,-3.976,-3.9735,-3.973,-3.967,-3.9667,-3.9662,-3.9592,-3.9593,-3.9565,-3.9529,-3.9541,-3.9544,-3.952,-3.9576,-3.955,-3.9557,-3.9556,-3.9561,-3.9571,-3.9581,-3.9455,-3.9455,-3.9454,0,0,-3.9903,-3.9877,-3.9889,-3.9865,-3.9828,-3.9792,-3.9795,-3.9747,-3.9726,-3.9725,-3.9672,-3.9665,-3.9643,-3.9619,-3.9604,-3.9669,-3.9629,-3.9666,-3.9718,-3.9726,-3.9735,-3.9742,-3.9764,-3.9773,-3.967,-3.967,-3.967,0,-3.9961,-3.9952,-3.99,-3.99,-3.9886,-3.9823,-3.9834,-3.9813,-3.9773,-3.9764,-3.9739,-3.9709,-3.968,-3.9684,-3.97,-3.969,-3.9691,-3.9671,-3.9738,-3.9745,-3.9751,-3.9771,-3.978,-3.9675,-3.9674,-3.9674,-3.9673,0,-4.0024,-4.0019,-4.0033,-3.9996,-3.9983,-3.999,-3.9937,-3.9931,-3.9896,-3.9863,-3.9862,-3.9825,-3.98,-3.9798,-3.9765,-3.9797,-3.9784,-3.9749,-3.9704,-3.9767,-3.9785,-3.9793,-3.9681,-3.968,-3.9678,-3.9677,0,0,-4.0153,-4.0086,-4.0092,-4.0073,-4.0027,-4.0021,-4.0024,-3.9999,-3.9995,-3.9969,-3.9968,-3.995,-3.9917,-3.99,-3.9863,-3.987,-3.9922,-3.9834,-3.9832,-3.9851,-3.9953,-3.998,-3.9989,-3.9895,-3.9896,-3.9897,-3.9956,0,-4.0219,-4.022,-4.0172,-4.0186,-4.0179,-4.0118,-4.012,-4.0091,-4.006,-4.0048,-4.0013,-4.0001,-3.9959,-3.9948,-3.9952,-3.9915,-3.9942,-3.991,-3.9893,-3.9893,-3.9903,-3.9999,-4.0027,-4.0084,-3.9963,-3.9964,-3.9965,0,-4.0297,-4.0276,-4.0289,-4.0241,-4.0236,-4.0239,-4.0212,-4.0202,-4.0168,-4.0144,-4.0125,-4.0082,-4.0079,-4.0037,-4.0032,-4.0011,-4.0001,-3.9982,-3.9982,-3.9979,-3.9933,-3.9997,-4.0101,-4.011,-3.9975,-3.9975,-3.9974,0,-4.0389,-4.0363,-4.0367,-4.0353,-4.0297,-4.03,-4.0277,-4.024,-4.0228,-4.0205,-4.0196,-4.0172,-4.0159,-4.0141,-4.0092,-4.0066,-4.0092,-4.0046,-4.0071,-4.0072,-4.0079,-4.0079,-4.0183,-4.0074,-4.0074,-4.0074,-4.0074,0,-4.0467,-4.0478,-4.0407,-4.0409,-4.0418,-4.0363,-4.0373,-4.0343,-4.0311,-4.0306,-4.0251,-4.0247,-4.0184,-4.0172,-4.0134,-4.0134,-4.0129,-4.0109,-4.0098,-4.0113,-4.0116,-4.0106,-4.01,-4.0076,-4.0076,-4.0075,-4.0075,0,-4.0571,-4.0524,-4.0524,-4.0471,-4.0458,-4.0467,-4.0421,-4.042,-4.0385,-4.0379,-4.0374,-4.0318,-4.0301,-4.0251,-4.0222,-4.0196,-4.0207,-4.0188,-4.0219,-4.0213,-4.024,-4.0238,-4.034,-4.035,-4.0237,-4.0238,-4.0239,0,-4.0624,-4.0631,-4.0578,-4.0571,-4.055,-4.0539,-4.0526,-4.0471,-4.046,-4.042,-4.0424,-4.0403,-4.0383,-4.0359,-4.0315,-4.0292,-4.0271,-4.0309,-4.0267,-4.0282,-4.027,-4.027,-4.027,-4.0318,-4.0319,-4.032,-4.0321,0,-4.0724,-4.07,-4.0684,-4.066,-4.0646,-4.0624,-4.0599,-4.0596,-4.0534,-4.0524,-4.0506,-4.0491,-4.046,-4.044,-4.0409,-4.0383,-4.0342,-4.0335,-4.0339,-4.0354,-4.0371,-4.0361,-4.0243,-4.0333,-4.0331,-4.0331,-4.033,-4.033,-4.0803,-4.0805,-4.0768,-4.0752,-4.0727,-4.0704,-4.0701,-4.0665,-4.0649,-4.0621,-4.0589,-4.0574,-4.0537,-4.0492,-4.0469,-4.0456,-4.0434,-4.0441,-4.0442,-4.0445,-4.0451,-4.0374,-4.0451,-4.045,-4.045,-4.0449,-4.0449,0,-4.0898,-4.0871,-4.0857,-4.0823,-4.081,-4.0772,-4.0742,-4.0733,-4.0722,-4.0691,-4.0672,-4.0651,-4.063,-4.0585,-4.0559,-4.0557,-4.0537,-4.0552,-4.0551,-4.0546,-4.0473,-4.0471,-4.0569,-4.0569,-4.0569,-4.0569,-4.0569,-4.0569,-4.0946,-4.0948,-4.0919,-4.0907,-4.0879,-4.0865,-4.0851,-4.0829,-4.0804,-4.0783,-4.0766,-4.0736,-4.0699,-4.067,-4.0648,-4.0635,-4.0628,-4.0649,-4.063,-4.0562,-4.0551,-4.054,-4.0538,-4.0648,-4.0648,-4.0703,-4.0704,-4.0704]}]]